Location: Caltech
(34.1382°N, 118.1253°W)
Time: 14:24:18
(UTC-07:00)

Iridium 21 - Visible Passes

Search period start: 20 April 2014 00:00
Search period end: 30 April 2014 00:00
Orbit: 776 x 779 km, 86.4° (Epoch: 20 April)

Date Brightness Start Highest point End Pass type
(mag) Time Alt. Az. Time Alt. Az. Time Alt. Az.
20 Apr 7.0 20:35:24 10° NE 20:38:44 17° ENE 20:39:06 17° E visible
20 Apr 6.4 22:14:43 10° NNW 22:19:36 44° W 22:19:36 44° W visible
21 Apr 5.4 21:40:58 10° N 21:46:12 86° W 21:46:36 76° SSW visible
22 Apr 5.7 21:07:37 10° N 21:12:40 48° E 21:13:38 43° ESE visible
22 Apr 7.9 22:49:57 10° NW 22:52:52 15° W 22:54:08 14° W visible
23 Apr 6.6 20:34:44 10° NNE 20:39:00 25° E 20:40:41 21° ESE visible
23 Apr 7.2 22:15:11 10° NNW 22:19:38 29° W 22:21:11 25° WSW visible
24 Apr 7.3 20:02:52 10° NE 20:05:12 13° ENE 20:07:32 10° ESE visible
24 Apr 6.0 21:41:10 10° N 21:46:16 57° W 21:48:16 35° SSW visible
25 Apr 5.4 21:07:35 10° N 21:12:48 73° E 21:15:23 30° SSE visible
26 Apr 6.1 20:34:23 10° NNE 20:39:12 37° E 20:42:31 18° SE visible
26 Apr 7.8 22:15:53 10° NW 22:19:35 20° W 22:23:02 11° SW visible
27 Apr 6.9 20:01:46 10° NNE 20:05:29 20° E 20:09:11 10° SE visible
27 Apr 6.8 21:41:30 10° NNW 21:46:17 38° W 21:50:12 15° SSW visible
28 Apr 5.7 21:07:40 10° N 21:12:53 75° W 21:17:25 14° S visible
29 Apr 5.6 20:34:14 10° N 20:39:21 56° E 20:44:27 10° SSE visible
29 Apr 8.2 22:17:07 10° NW 22:19:29 13° W 22:21:50 10° WSW visible
